Preview of NWS' New Version of Forecast
This preview is not operational and should not be used for support decisions.

Regional Weather Roundup (RWR)

Issued by National Weather Service (NWS)

                            
000
ASUS42 KTBW 210918
RWRFL 
FLORIDA REGIONAL WEATHER ROUNDUP
NATIONAL WEATHER SERVICE TAMPA BAY RUSKIN FL
500 AM EDT SAT SEP 21 2019

NOTE: "FAIR" INDICATES FEW OR NO CLOUDS BELOW 12,000 FEET WITH NO
SIGNIFICANT WEATHER AND/OR OBSTRUCTIONS TO VISIBILITY.

FLZ001>010-012>015-112-114-115-211000-
PANHANDLE FLORIDA
  
CITY           SKY/WX    TMP DP  RH WIND       PRES   REMARKS
PENSACOLA      MOCLDY    75  69  81 E7        30.14S                  
PENSACOLA NAS  CLOUDY    78  71  79 E12       30.12S                  
MILTON NAS     FAIR      68  62  81 E6        30.16S                  
CRESTVIEW      FAIR      66  61  84 CALM      30.18R                  
DUKE FIELD     FAIR      70  64  79 E5        30.16R                  
VALPARAISO     FAIR      73  64  73 E7        30.15R                  
MARY ESTHER    PTCLDY    72  66  81 NE8       30.13S                  
PANAMA CITY    FAIR      72  65  78 NE8       30.15S                  
TYNDALL AFB    FAIR      72  66  83 NE5       30.15R                  
APALACHICOLA   FAIR      74  67  78 E8        30.14S                  

STATION/POSITION SKY/WX   TEMP    WIND        PRES    WAVE   SWELL
                          AIR SEA DIR/SP/G            HT/PER HT/PER
                          (F)     (DEG/KT/KT) (MB)    (FT/S) (FT/S)
30.1N   87.6W              83 84   80/ 14/ 17 1019.6F   5/ 8   3/ 8
29.2N   88.2W              84     100/ 17/ 21 1018.8F   7/ 8   2/14
28.8N   86.0W                 85  110/ 21/ 25 1018.9S   7/ 7   5/ 7
PANAMA CITY BEAC           74 83  100/  8/ 14 1021.4S
TOWER C                    79     100/ 20/ 23 1020.6R
28.5N   84.5W              81      90/ 19/ 25 1019.5F   8/ 7

$$
FLZ011-016>038-118-127-128-134-139-239-211000-
NORTH FLORIDA
  
CITY           SKY/WX    TMP DP  RH WIND       PRES   REMARKS
MARIANNA       FAIR      67  65  93 NE5       30.18R                  
TALLAHASSEE    FAIR      72  68  87 E8        30.18R                  
PERRY          FAIR      69  68  97 N5        30.19R                  
LIVE OAK       CLOUDY    68  68 100 CALM      30.18S                  
CROSS CITY       N/A     69  68  96 NE3       30.16F                  
LAKE CITY      FAIR      68  66  94 NE3       30.18S                  
GAINESVILLE    CLOUDY    70  67  90 NE6       30.18F                  
WILLISTON      FAIR      68  67  96 NE5       30.15F                  
PALATKA        CLOUDY    63  63 100 CALM      30.16F                  
MAYPORT NAS    MOCLDY    79  67  66 E18       30.17S                  
JACKSONVILLE   FAIR      67  64  90 N3        30.17S                  
JAX NAS        MOCLDY    74  65  73 NE8       30.17F                  
JAX CECIL      FOG       66  64  94 CALM      30.17F VSB 1/4          
FERNANDINA BEA FAIR      78  64  63 E12       30.18S                  
ST AUGUSTINE   CLOUDY   N/A N/A N/A E17       30.17S                  
PALM COAST     MOCLDY    77  63  63 E8G16     30.15S                  

STATION/POSITION SKY/WX   TEMP    WIND        PRES    WAVE   SWELL
                          AIR SEA DIR/SP/G            HT/PER HT/PER
                          (F)     (DEG/KT/KT) (MB)    (FT/S) (FT/S)
SHELL POINT      NOT AVBL
KEATON BEACH               70      50/  4/  6 1021.7S
CEDAR KEY                  73      50/ 10/ 12 1020.9F
FERNANDINA                 82 81   60/  3/  8 1022.9S
30.7N   81.3W                 81                N/A     5/ 7   2/15
MAYPORT                    80 81   80/ 11/ 17 1022.2S
31.4N   80.9W              80 81   80/ 16/ 19 1022.4S   5/ 8   3/ 8
ST AUGUSTINE               80 80   90/ 17/ 19 1021.4F

$$
FLZ040-043>046-052-053-057-058-063-144-211000-
INTERIOR CENTRAL FLORIDA
  
CITY           SKY/WX    TMP DP  RH WIND       PRES   REMARKS
OCALA          FAIR      69  67  93 VRB3      30.15F                  
LEESBURG       FAIR      71  65  81 NE6       30.14S                  
SANFORD        MOCLDY    72  63  73 NE7       30.13S                  
ORLANDO EXEC   MOCLDY    73  65  75 NE7       30.12F                  
ORLANDO INTL   FAIR      72  63  73 NE8       30.12S                  
KISSIMMEE      FAIR      74  64  71 NE8       30.13R                  
WINTER HAVEN   FAIR      73  65  75 NE9       30.12R                  
BARTOW           N/A     72  66  83 NE7       30.10R                  
SEBRING        FAIR      70  66  88 NE7       30.09S                  
OKEECHOBEE       N/A     68  64  88 N5        30.07S                  

$$
FLZ041-047-054-059-064-141-147-211000-
EAST CENTRAL FLORIDA
  
CITY           SKY/WX    TMP DP  RH WIND       PRES   REMARKS
DAYTONA BEACH  FAIR      78  64  61 E13       30.14S                  
DELAND         MOCLDY    70  61  73 NE3       30.14S                  
JFK SPACE CTR  PTCLDY    77  68  74 E14       30.11S                  
CAPE CANAVERAL FAIR      78  68  69 E10G18    30.10S                  
PATRICK AFB    FAIR      79  64  58 E12       30.10S                  
MELBOURNE      FAIR      79  62  56 E16       30.09S                  
VERO BEACH     MOCLDY    80  65  59 E16G23    30.08S                  
FT PIERCE      FAIR      79  66  64 E13       30.07S                  
STUART         FAIR      79  64  61 E18       30.07S                  

STATION/POSITION SKY/WX   TEMP    WIND        PRES    WAVE   SWELL
                          AIR SEA DIR/SP/G            HT/PER HT/PER
                          (F)     (DEG/KT/KT) (MB)    (FT/S) (FT/S)
28.5N   80.2W              80 83   90/ 17/ 23 1019.8F  12/14   8/14
28.9N   78.5W              79 81   70/ 19/ 25 1020.8R  12/14  10/14
TRIDENT PIER               79 82   70/ 11/ 15 1021.0S
28.4N   80.5W                 81                N/A     5/14   2/14
27.5N   80.2W                 82                N/A     8/12   5/12

$$
FLZ050-056-061-142-242-148-248-149-249-151-251-155-255-
160-260-211000-
WEST CENTRAL FLORIDA
  
CITY           SKY/WX    TMP DP  RH WIND       PRES   REMARKS
CRYSTAL RIVER  FAIR      68  64  88 CALM      30.14S                  
INVERNESS      FAIR      68  68 100 NE6       30.14S                  
BROOKSVILLE    FAIR      69  65  86 NE7       30.13R                  
CLEARWATER AIR FAIR      72  66  83 NE3       30.10R                  
ST PETE CLEARW FAIR      76  67  73 E12       30.10S                  
TAMPA INTL     FAIR      73  66  78 NE6       30.10F                  
TAMPA EXEC     FAIR      70  68  94 NE3       30.11S                  
PLANT CITY     FAIR      70  68  94 NE5       30.12S                  
MACDILL AFB    FAIR      73  67  81 E13       30.09S                  
PETER O KNIGHT CLOUDY    73  70  88 E9        30.10S                  
ST PETERSBURG  FAIR      77  69  76 NE15      30.08S                  
SARASOTA       FAIR      75  67  76 E9        30.06S                  
VENICE         MOCLDY    72  68  88 NE9       30.07S                  

STATION/POSITION SKY/WX   TEMP    WIND        PRES    WAVE   SWELL
                          AIR SEA DIR/SP/G            HT/PER HT/PER
                          (F)     (DEG/KT/KT) (MB)    (FT/S) (FT/S)
27.3N   84.2W                 84                N/A     9/ 7
CLEARWATER BEACH           74 84   40/  6/  9 1019.3F
MIDDLE TAMPA BAY           75      80/ 15/ 19 1019.0F
VENICE                     72 84   40/  7/ 10 1018.0F

$$
FLZ066-069-070-075>078-162-262-165-265-211000-
SOUTHWEST FLORIDA AND KEYS
  
CITY           SKY/WX    TMP DP  RH WIND       PRES   REMARKS
PUNTA GORDA    FAIR      69  69 100 NE7       30.08S                  
FT MYERS       FAIR      74  68  81 NE9       30.04S                  
SOUTHWEST INTL FAIR      73  69  87 NE7       30.04F                  
NAPLES         FAIR      76  71  85 NE14      30.01F                  
MARCO ISLAND   FAIR      74  71  91 NE9       30.03S                  
IMMOKALEE      FAIR      73  70  88 NE12      30.02F                  
MARATHON       FAIR      79  75  87 NE17G24   29.96F                  
KEY WEST NAS   FAIR      81  75  82 NE14      29.95F                  
KEY WEST INTL  FAIR      80  74  81 NE10      29.96S                  

STATION/POSITION SKY/WX   TEMP    WIND        PRES    WAVE   SWELL
                          AIR SEA DIR/SP/G            HT/PER HT/PER
                          (F)     (DEG/KT/KT) (MB)    (FT/S) (FT/S)
NAPLES                     76 83   40/  9/ 14 1016.4F
26.0N   85.6W              83 86   80/ 19/ 25 1015.9F  10/ 9   2/15
DRY TORTUGAS               81      80/ 27/ 30 1014.6F
SAND KEY                   82      80/ 25/ 30 1012.2
SOMBRERO KEY               82      80/ 22/ 27 1014.3
LONG KEY                   81                 1013.3F

$$
FLZ067-068-071>074-168-172>174-211000-
SOUTHEAST FLORIDA 
  
CITY           SKY/WX    TMP DP  RH WIND       PRES   REMARKS
W PALM BEACH   MOCLDY    79  67  66 E15       30.05S                  
FT LAUDER-EXEC MOCLDY    80  70  71 E14G23    30.02S                  
FT LAUDERDALE  MOCLDY    80  71  74 NE20G28   30.01S                  
POMPANO BEACH  MOCLDY    81  70  69 E18G28    30.02S                  
PEMBROKE PINES CLOUDY    81  70  69 NE17G25   30.03S                  
OPA LOCKA      FAIR      80  72  76 NE14      30.02S                  
MIAMI          MOCLDY    82  70  66 E15G22    30.01S                  
WEST KENDALL   RAIN      80  74  81 E15       30.00S                  
HOMESTEAD      MOCLDY    81  73  77 NE14G22   29.98F                  

STATION/POSITION SKY/WX   TEMP    WIND        PRES    WAVE   SWELL
                          AIR SEA DIR/SP/G            HT/PER HT/PER
                          (F)     (DEG/KT/KT) (MB)    (FT/S) (FT/S)
VIRGINIA KEY               81 83   40/ 16/ 21 1015.5F
LAKE WORTH                 80 81   60/ 20/ 23 1018.4S
FOWEY ROCKS                82 83   60/ 26/ 28 1015.7F
SETTLEMENT POINT           79      70/ 20/ 23 1017.3R

$$